Weather History for Carmi, IL

Change the Weather History Date:

Saturday, May 25, 2013

  Actual Average (KEVV) Record (KEVV)
Temperature  
Mean Temperature 60 °F 68 °F  
Max Temperature 75 °F 80 °F 94 °F (1911)
Min Temperature 46 °F 57 °F 35 °F (1925)
Degree Days  
Heating Degree Days 4 2  
Month to date heating degree days 80  
Since 1 July heating degree days 4535  
Cooling Degree Days 0 5  
Month to date cooling degree days 74  
Year to date cooling degree days 101  
Growing Degree Days 10 (Base 50)    
Moisture  
Dew Point 49 °F    
Average Humidity 66    
Maximum Humidity 100    
Minimum Humidity 36    
Precipitation  
Precipitation 0.00 in 0.16 in 2.23 in (2009)
Month to date precipitation 4.32  
Year to date precipitation 19.20  
Snow  
Snow 0.00 in 0.00 in 0.00 in (2002)
Month to date snowfall 0.0  
Since 1 July snowfall 11.8  
Snow Depth -    
Sea Level Pressure  
Sea Level Pressure 30.28 in    
Wind  
Wind Speed 3 mph (East)    
Max Wind Speed 13 mph    
Max Gust Speed -    
Visibility 10 miles    
Events      
T = Trace of Precipitation, MM = Missing Value Source: NWS Daily Summary

Daily Weather History Graph

Daily Weather History Graph

Search for Another Location

Airport:

Trip Planner

Search our weather history database for the weather conditions in past years. The results will help you decide how hot, cold, wet, or windy it might be!

Date:

Astronomy

May. 25, 2013 Rise Set
Actual Time 5:34 AM CDT 8:04 PM CDT
Civil Twilight 5:04 AM CDT 8:35 PM CDT
Nautical Twilight 4:26 AM CDT 9:13 PM CDT
Astronomical Twilight 3:44 AM CDT 9:55 PM CDT
Moon 8:52 PM CDT (5/25) 6:00 AM CDT (5/25)
Length of Visible Light 15h 31m
Length of Day
14h 30m
Full, 100% of the Moon is Illuminated
May 25
Full
May 31
Last Quarter
Jun 8
New
Jun 16
First Quarter
Jun 23
Full

Hourly Weather History & Observations

Time (CDT) Temp. Windchill Dew Point Humidity Pressure Visibility Wind Dir Wind Speed Gust Speed Precip Events Conditions
12:19 AM 51.8 °F - 48.2 °F 88% 30.32 in 10.0 mi Calm Calm - N/A   Clear
12:39 AM 51.8 °F - 48.2 °F 88% 30.32 in 10.0 mi Calm Calm - N/A   Clear
12:59 AM 51.8 °F - 50.0 °F 94% 30.31 in 10.0 mi Calm Calm - N/A   Clear
1:19 AM 51.8 °F - 48.2 °F 88% 30.31 in 10.0 mi Calm Calm - N/A   Clear
1:39 AM 50.0 °F - 48.2 °F 94% 30.30 in 10.0 mi Calm Calm - N/A   Clear
1:59 AM 50.0 °F - 48.2 °F 94% 30.30 in 10.0 mi North 3.5 mph - N/A   Clear
2:19 AM 48.2 °F - 46.4 °F 93% 30.30 in 10.0 mi North 3.5 mph - N/A   Clear
2:39 AM 50.0 °F - 48.2 °F 94% 30.30 in 10.0 mi Calm Calm - N/A   Clear
2:59 AM 50.0 °F - 48.2 °F 94% 30.28 in 10.0 mi Calm Calm - N/A   Clear
3:19 AM 50.0 °F - 48.2 °F 94% 30.29 in 10.0 mi Calm Calm - N/A   Clear
3:39 AM 48.2 °F - 48.2 °F 100% 30.28 in 10.0 mi Calm Calm - N/A   Clear
3:59 AM 48.2 °F - 46.4 °F 93% 30.27 in 10.0 mi Calm Calm - N/A   Clear
4:19 AM 48.2 °F - 48.2 °F 100% 30.27 in 10.0 mi SSE 3.5 mph - N/A   Clear
4:39 AM 48.2 °F - 46.4 °F 93% 30.29 in 10.0 mi West 3.5 mph - N/A   Clear
4:59 AM 48.2 °F - 46.4 °F 93% 30.30 in 10.0 mi West 3.5 mph - N/A   Clear
5:19 AM 46.4 °F - 46.4 °F 100% 30.29 in 10.0 mi Calm Calm - N/A   Clear
5:39 AM 46.4 °F 44.3 °F 44.6 °F 93% 30.30 in 10.0 mi North 4.6 mph - N/A   Clear
5:59 AM 46.4 °F - 46.4 °F 100% 30.30 in 7.0 mi Calm Calm - N/A   Clear
6:19 AM 48.2 °F - 48.2 °F 100% 30.31 in 7.0 mi Calm Calm - N/A   Clear
6:39 AM 50.0 °F - 48.2 °F 94% 30.32 in 10.0 mi Calm Calm - N/A   Clear
6:59 AM 51.8 °F - 50.0 °F 94% 30.33 in 7.0 mi Calm Calm - N/A   Clear
7:19 AM 53.6 °F - 51.8 °F 94% 30.35 in 10.0 mi Calm Calm - N/A   Clear
7:39 AM 53.6 °F - 51.8 °F 94% 30.36 in 10.0 mi Calm Calm - N/A   Clear
7:59 AM 55.4 °F - 51.8 °F 88% 30.36 in 10.0 mi Calm Calm - N/A   Clear
8:19 AM 55.4 °F - 51.8 °F 88% 30.36 in 10.0 mi Calm Calm - N/A   Clear
8:39 AM 57.2 °F - 51.8 °F 82% 30.38 in 10.0 mi Calm Calm - N/A   Clear
8:59 AM 60.8 °F - 53.6 °F 77% 30.38 in 10.0 mi Calm Calm - N/A   Clear
9:19 AM 62.6 °F - 51.8 °F 68% 30.38 in 10.0 mi Calm Calm - N/A   Clear
9:39 AM 64.4 °F - 51.8 °F 64% 30.37 in 10.0 mi Calm Calm - N/A   Clear
9:59 AM 66.2 °F - 51.8 °F 60% 30.35 in 10.0 mi SE 3.5 mph - N/A   Clear
10:19 AM 68.0 °F - 50.0 °F 52% 30.34 in 10.0 mi SSE 4.6 mph - N/A   Clear
10:39 AM 68.0 °F - 48.2 °F 49% 30.33 in 10.0 mi SSE 6.9 mph - N/A   Clear
10:59 AM 69.8 °F - 48.2 °F 46% 30.33 in 10.0 mi SSE 4.6 mph - N/A   Clear
11:19 AM 69.8 °F - 48.2 °F 46% 30.34 in 10.0 mi SSE 3.5 mph - N/A   Clear
11:39 AM 71.6 °F - 44.6 °F 38% 30.34 in 10.0 mi Calm Calm - N/A   Clear
11:59 AM 71.6 °F - 46.4 °F 41% 30.33 in 10.0 mi South 5.8 mph - N/A   Clear
12:19 PM 71.6 °F - 46.4 °F 41% 30.33 in 10.0 mi Calm Calm - N/A   Clear
12:39 PM 71.6 °F - 48.2 °F 43% 30.33 in 10.0 mi East 5.8 mph - N/A   Clear
12:59 PM 73.4 °F - 48.2 °F 41% 30.32 in 10.0 mi SSE 5.8 mph - N/A   Clear
1:19 PM 73.4 °F - 46.4 °F 38% 30.31 in 10.0 mi SE 4.6 mph - N/A   Clear
1:39 PM 71.6 °F - 46.4 °F 41% 30.31 in 10.0 mi East 6.9 mph - N/A   Clear
1:59 PM 73.4 °F - 46.4 °F 38% 30.30 in 10.0 mi East 3.5 mph - N/A   Clear
2:19 PM 73.4 °F - 46.4 °F 38% 30.30 in 10.0 mi East 5.8 mph - N/A   Clear
2:39 PM 73.4 °F - 48.2 °F 41% 30.30 in 10.0 mi East 5.8 mph - N/A   Clear
2:59 PM 75.2 °F - 46.4 °F 36% 30.29 in 10.0 mi East 8.1 mph - N/A   Clear
3:19 PM 73.4 °F - 46.4 °F 38% 30.28 in 10.0 mi East 6.9 mph - N/A   Clear
3:39 PM 73.4 °F - 46.4 °F 38% 30.28 in 10.0 mi ENE 3.5 mph - N/A   Clear
3:59 PM 73.4 °F - 48.2 °F 41% 30.26 in 10.0 mi SE 6.9 mph - N/A   Clear
4:22 PM 71.6 °F - 48.2 °F 43% 30.26 in 10.0 mi East 4.6 mph - N/A   Clear
4:39 PM 71.6 °F - 51.8 °F 50% 30.24 in 10.0 mi East 8.1 mph - N/A   Clear
5:00 PM 71.6 °F - 48.2 °F 43% 30.20 in 10.0 mi ESE 10.4 mph - N/A   Clear
5:22 PM 71.6 °F - 46.4 °F 41% 30.20 in 10.0 mi SE 11.5 mph - N/A   Clear
5:41 PM 73.4 °F - 48.2 °F 41% 30.21 in 10.0 mi SE 5.8 mph - N/A   Clear
5:59 PM 73.4 °F - 46.4 °F 38% 30.20 in 10.0 mi SSE 8.1 mph - N/A   Clear
6:19 PM 71.6 °F - 48.2 °F 43% 30.20 in 10.0 mi SSE 6.9 mph - N/A   Clear
6:39 PM 71.6 °F - 48.2 °F 43% 30.17 in 10.0 mi SSE 8.1 mph - N/A   Clear
6:59 PM 71.6 °F - 50.0 °F 46% 30.16 in 10.0 mi SSE 6.9 mph - N/A   Clear
7:19 PM 69.8 °F - 51.8 °F 53% 30.16 in 10.0 mi SE 5.8 mph - N/A   Clear
7:39 PM 69.8 °F - 55.4 °F 60% 30.18 in 10.0 mi ESE 4.6 mph - N/A   Clear
7:59 PM 69.8 °F - 53.6 °F 56% 30.18 in 10.0 mi ENE 4.6 mph - N/A   Clear
8:19 PM 69.8 °F - 51.8 °F 53% 30.19 in 10.0 mi ENE 5.8 mph - N/A   Scattered Clouds
8:59 PM 68.0 °F - 51.8 °F 56% 30.20 in 10.0 mi NE 5.8 mph - N/A   Clear
9:19 PM 68.0 °F - 51.8 °F 56% 30.20 in 10.0 mi ENE 6.9 mph - N/A   Scattered Clouds
9:41 PM 66.2 °F - 51.8 °F 60% 30.20 in 10.0 mi ENE 6.9 mph - N/A   Scattered Clouds
9:59 PM 66.2 °F - 53.6 °F 64% 30.22 in 10.0 mi NE 8.1 mph - N/A   Clear
10:19 PM 66.2 °F - 51.8 °F 60% 30.22 in 10.0 mi ENE 10.4 mph - N/A   Clear
10:39 PM 64.4 °F - 51.8 °F 64% 30.22 in 10.0 mi ENE 10.4 mph - N/A   Scattered Clouds
10:59 PM 64.4 °F - 51.8 °F 64% 30.23 in 10.0 mi NE 10.4 mph - N/A   Scattered Clouds
11:19 PM 64.4 °F - 51.8 °F 64% 30.22 in 10.0 mi NE 12.7 mph - N/A   Scattered Clouds
11:39 PM 62.6 °F - 50.0 °F 63% 30.22 in 10.0 mi ENE 10.4 mph - N/A   Clear
11:59 PM 62.6 °F - 48.2 °F 59% 30.22 in 10.0 mi NE 10.4 mph - N/A   Scattered Clouds